sat.trackr.live / text

‹ back to catalog

MAROC-TUBSAT

NORAD 27004 · 2001-056D

PAYLOAD ACTIVE UNKNOWN

§ Identity

Operator
Country
GER
Launch date
2001-12-10
Launch site
TYMSC
Launch vehicle
Mass (kg)
RCS (m²)
0.35

Purposes: earth_obs

External: N2YO · Heavens-Above · Gunter

§ Orbital elements

Epoch: 2026-05-25T02:02:17.082816Z

Period
105.09 min
Inclination
99.8074°
Eccentricity
0.0019558
Mean motion
13.70261364 rev/d
Perigee alt
984.2 km
Apogee alt
1,013.1 km
Semi-major
7,376.8 km
B*
2.9730e-5
RAAN
321.5099°
Arg perigee
199.9843°
Mean anomaly
271.0215°
Rev number
22,302

§ Raw data

MAROC-TUBSAT1 27004U 01056D   26145.08491994 -.00000020  00000+0  29730-4 0  99942 27004  99.8074 321.5099 0019558 199.9843 271.0215 13.70261364223022

JSON: /api/v1/satellites/27004 · /tle

For live sub-satellite position, see the globe view (requires WebGL).

§ Visibility from observer

Set your observer location to see the next 7 days of passes ≥ 10°. The values pass through the URL so the page stays shareable.

No JS? Fill the form by hand. The geolocation button needs JavaScript.